Weather History for KGPI - July, 2013

Change the Weather History Date:

Saturday, July 27, 2013

  Actual Average Record
Temperature  
Mean Temperature 66 °F 66 °F  
Max Temperature 90 °F 84 °F 100 °F (1975)
Min Temperature 42 °F 49 °F 40 °F (1983)
Degree Days  
Heating Degree Days 0 1  
Month to date heating degree days 18 73  
Since 1 June heating degree days 204 289  
Since 1 July heating degree days 18 73  
Cooling Degree Days 1 3  
Month to date cooling degree days 111 55  
Year to date cooling degree days 130 71  
Since 1 June cooling degree days 130 68  
Growing Degree Days 16 (Base 50)    
Moisture  
Dew Point 38 °F    
Average Humidity 48    
Maximum Humidity 83    
Minimum Humidity 12    
Precipitation  
Precipitation 0.00 in 0.04 in 0.93 in (1940)
Month to date precipitation 0.31 1.33  
Year to date precipitation 9.32 10.50  
Snow  
Snow 0.00 in - - ()
Month to date snowfall 0.0  
Year to date snowfall 10.1  
Since 1 July snowfall 0.0  
Snow Depth 0.00 in    
Sea Level Pressure  
Sea Level Pressure 29.87 in    
Wind  
Wind Speed 5 mph (SW)    
Max Wind Speed 20 mph    
Max Gust Speed 25 mph    
Visibility 10 miles    
Events      
T = Trace of Precipitation, MM = Missing Value Source: NWS Daily Summary

Daily Weather History Graph

Daily Weather History Graph

Search for Another Location

Airport or City:

Trip Planner

Search our weather history database for the weather conditions in past years. The results will help you decide how hot, cold, wet, or windy it might be!

Date:

Astronomy

Jul. 27, 2013 Rise Set
Actual Time 6:06 AM MDT 9:20 PM MDT
Civil Twilight 5:28 AM MDT 9:57 PM MDT
Nautical Twilight 4:39 AM MDT 10:46 PM MDT
Astronomical Twilight 3:36 AM MDT 11:48 PM MDT
Moon 11:34 PM MDT (7/27) 12:24 PM MDT (7/27)
Length of Visible Light 16h 28m
Length of Day
15h 13m
Waning Gibbous, 70% of the Moon is Illuminated
Jul 27
Waning Gibbous
Jul 29
Last Quarter
Aug 6
New
Aug 14
First Quarter
Aug 20
Full

Hourly Weather History & Observations

Time (MDT) Temp. Dew Point Humidity Pressure Visibility Wind Dir Wind Speed Gust Speed Precip Events Conditions
12:55 AM 55.0 °F 44.1 °F 67% 29.93 in 10.0 mi Calm Calm - N/A   Clear
1:55 AM 55.0 °F 44.1 °F 67% 29.91 in 10.0 mi Calm Calm - N/A   Clear
2:55 AM 51.1 °F 42.1 °F 71% 29.91 in 10.0 mi Calm Calm - N/A   Clear
3:55 AM 48.0 °F 41.0 °F 77% 29.91 in 10.0 mi Calm Calm - N/A   Clear
4:55 AM 46.9 °F 41.0 °F 80% 29.91 in 10.0 mi Calm Calm - N/A   Clear
5:55 AM 46.0 °F 39.9 °F 79% 29.92 in 10.0 mi Calm Calm - N/A   Clear
6:55 AM 45.0 °F 39.9 °F 82% 29.93 in 10.0 mi Calm Calm - N/A   Clear
7:55 AM 57.0 °F 44.1 °F 62% 29.92 in 10.0 mi Calm Calm - N/A   Clear
8:55 AM 64.9 °F 46.0 °F 50% 29.91 in 10.0 mi Calm Calm - N/A   Clear
9:55 AM 68.0 °F 45.0 °F 43% 29.91 in 10.0 mi Calm Calm - N/A   Clear
10:55 AM 78.1 °F 46.0 °F 32% 29.89 in 10.0 mi SSE 8.1 mph - N/A   Clear
11:55 AM 84.0 °F 35.1 °F 17% 29.87 in 10.0 mi SSE 10.4 mph - N/A   Clear
12:55 PM 86.0 °F 28.0 °F 12% 29.86 in 10.0 mi WSW 10.4 mph - N/A   Clear
1:55 PM 88.0 °F 28.0 °F 12% 29.84 in 10.0 mi WSW 13.8 mph 25.3 mph N/A   Clear
2:55 PM 88.0 °F 28.9 °F 12% 29.83 in 10.0 mi SW 5.8 mph 16.1 mph N/A   Clear
3:55 PM 88.0 °F 30.9 °F 13% 29.83 in 10.0 mi WSW 12.7 mph 20.7 mph N/A   Clear
4:55 PM 88.0 °F 32.0 °F 14% 29.82 in 10.0 mi WSW 11.5 mph 23.0 mph N/A   Clear
5:55 PM 87.1 °F 33.1 °F 15% 29.82 in 10.0 mi SW 10.4 mph - N/A   Clear
6:55 PM 82.9 °F 33.1 °F 17% 29.83 in 10.0 mi West 6.9 mph - N/A   Clear
7:55 PM 82.0 °F 37.0 °F 20% 29.81 in 10.0 mi West 6.9 mph - N/A   Clear
8:55 PM 75.9 °F 37.9 °F 25% 29.81 in 10.0 mi West 6.9 mph - N/A   Clear
9:55 PM 66.9 °F 37.0 °F 33% 29.84 in 10.0 mi Calm Calm - N/A   Clear
10:55 PM 62.1 °F 42.1 °F 48% 29.84 in 10.0 mi SSE 6.9 mph - N/A   Clear
11:55 PM 55.0 °F 39.0 °F 55% 29.84 in 10.0 mi Calm Calm - N/A   Clear